Hourly Weather Mongu

Today, 26 January, Tuesday

Time Temperature Precipitation Wind Pressure Humidity
00:00 +20°C° 0.1 mm 2 mps 672 mmHg 92%
01:00 +20°C° 0.1 mm 2 mps 672 mmHg 93%
02:00 +20°C° 0 mm 2 mps 671 mmHg 93%
03:00 +20°C° 0.1 mm 2 mps 671 mmHg 94%
04:00 +20°C° 0.1 mm 2 mps 671 mmHg 94%
05:00 +20°C° 0.1 mm 2 mps 671 mmHg 95%
06:00 +20°C° 0.1 mm 2 mps 672 mmHg 93%
07:00 +21°C° 0.1 mm 2 mps 672 mmHg 92%
08:00 +21°C° 0 mm 2 mps 673 mmHg 90%
09:00 +23°C° 0.4 mm 2 mps 673 mmHg 87%
10:00 +24°C° 0.4 mm 3 mps 673 mmHg 84%
11:00 +25°C° 0.4 mm 3 mps 673 mmHg 81%
12:00 +26°C° 1.2 mm 3 mps 673 mmHg 78%
13:00 +27°C° 1.2 mm 3 mps 672 mmHg 75%
14:00 +27°C° 1.2 mm 3 mps 672 mmHg 72%
15:00 +27°C° 1.5 mm 3 mps 671 mmHg 75%
16:00 +26°C° 1.5 mm 2 mps 671 mmHg 78%
17:00 +26°C° 1.5 mm 2 mps 670 mmHg 81%
18:00 +24°C° 1.1 mm 2 mps 671 mmHg 85%
19:00 +23°C° 1.1 mm 2 mps 671 mmHg 89%
20:00 +21°C° 1.1 mm 2 mps 671 mmHg 93%
21:00 +21°C° 0.7 mm 2 mps 671 mmHg 94%
22:00 +21°C° 0.7 mm 2 mps 672 mmHg 95%
23:00 +21°C° 0.7 mm 2 mps 672 mmHg 96%

Tomorrow, 27 January, Wednesday

Time Temperature Precipitation Wind Pressure Humidity
00:00 +20°C° 1 mm 2 mps 671 mmHg 96%
01:00 +20°C° 1 mm 3 mps 671 mmHg 96%
02:00 +20°C° 1 mm 3 mps 671 mmHg 96%
03:00 +20°C° 0.7 mm 3 mps 671 mmHg 96%
04:00 +19°C° 0.7 mm 3 mps 671 mmHg 96%
05:00 +19°C° 0.7 mm 3 mps 671 mmHg 96%
06:00 +19°C° 1.5 mm 3 mps 671 mmHg 96%
07:00 +19°C° 1.5 mm 3 mps 671 mmHg 96%
08:00 +20°C° 1.5 mm 2 mps 672 mmHg 97%
09:00 +20°C° 1.1 mm 2 mps 672 mmHg 95%
10:00 +20°C° 1.1 mm 2 mps 672 mmHg 94%
11:00 +21°C° 1.1 mm 3 mps 672 mmHg 92%
12:00 +21°C° 0.8 mm 3 mps 672 mmHg 92%
13:00 +21°C° 0.8 mm 3 mps 671 mmHg 92%
14:00 +21°C° 0.8 mm 3 mps 670 mmHg 91%
15:00 +21°C° 0.2 mm 3 mps 670 mmHg 91%
16:00 +21°C° 0.2 mm 3 mps 670 mmHg 91%
17:00 +21°C° 0.2 mm 3 mps 669 mmHg 91%
18:00 +20°C° 0 mm 3 mps 669 mmHg 93%
19:00 +20°C° 0 mm 2 mps 670 mmHg 95%
20:00 +19°C° 0 mm 2 mps 670 mmHg 97%
21:00 +19°C° 0 mm 2 mps 670 mmHg 97%
22:00 +19°C° 0 mm 2 mps 671 mmHg 97%
23:00 +19°C° 0 mm 3 mps 671 mmHg 97%

Day after tomorrow, 28 January, Thursday

Time Temperature Precipitation Wind Pressure Humidity
00:00 +19°C° 0.5 mm 3 mps 671 mmHg 97%
01:00 +19°C° 0.5 mm 3 mps 670 mmHg 97%
02:00 +19°C° 0.5 mm 3 mps 670 mmHg 96%
03:00 +19°C° 0.8 mm 3 mps 670 mmHg 96%
04:00 +19°C° 0.8 mm 3 mps 670 mmHg 96%
05:00 +19°C° 0.8 mm 3 mps 670 mmHg 96%
06:00 +20°C° 0.3 mm 3 mps 670 mmHg 96%
07:00 +20°C° 0.3 mm 3 mps 671 mmHg 96%
08:00 +20°C° 0.3 mm 3 mps 671 mmHg 95%
09:00 +20°C° 0.1 mm 3 mps 671 mmHg 94%
10:00 +21°C° 0.1 mm 3 mps 672 mmHg 92%
11:00 +21°C° 0.1 mm 3 mps 672 mmHg 91%
12:00 +22°C° 0.7 mm 3 mps 671 mmHg 87%
13:00 +24°C° 0.7 mm 3 mps 671 mmHg 83%
14:00 +26°C° 0.7 mm 3 mps 670 mmHg 78%
15:00 +26°C° 1.1 mm 3 mps 670 mmHg 79%
16:00 +26°C° 1.1 mm 3 mps 670 mmHg 79%
17:00 +26°C° 1.1 mm 3 mps 669 mmHg 79%
18:00 +24°C° 0.8 mm 2 mps 670 mmHg 84%
19:00 +23°C° 0.8 mm 2 mps 670 mmHg 88%
20:00 +21°C° 0.8 mm 2 mps 670 mmHg 93%
21:00 +20°C° 0 mm 2 mps 671 mmHg 93%
22:00 +20°C° 0 mm 2 mps 671 mmHg 94%
23:00 +20°C° 0 mm 2 mps 672 mmHg 94%

29 January, Friday

Time Temperature Precipitation Wind Pressure Humidity
00:00 +19°C° 0 mm 2 mps 672 mmHg 95%
01:00 +19°C° 0 mm 2 mps 671 mmHg 96%
02:00 +19°C° 0 mm 2 mps 671 mmHg 97%
03:00 +19°C° 0 mm 2 mps 671 mmHg 97%
04:00 +19°C° 0 mm 2 mps 671 mmHg 97%
05:00 +18°C° 0 mm 2 mps 671 mmHg 97%
06:00 +19°C° 0 mm 2 mps 672 mmHg 95%
07:00 +20°C° 0 mm 3 mps 672 mmHg 92%
08:00 +21°C° 0 mm 3 mps 673 mmHg 89%
09:00 +22°C° 0 mm 3 mps 673 mmHg 81%
10:00 +25°C° 0 mm 3 mps 673 mmHg 73%
11:00 +27°C° 0 mm 4 mps 674 mmHg 65%
12:00 +28°C° 0 mm 3 mps 673 mmHg 63%
13:00 +28°C° 0 mm 3 mps 672 mmHg 61%
14:00 +29°C° 0 mm 3 mps 672 mmHg 59%
15:00 +28°C° 0.4 mm 3 mps 671 mmHg 63%
16:00 +28°C° 0.4 mm 3 mps 671 mmHg 66%
17:00 +28°C° 0.4 mm 3 mps 670 mmHg 69%
18:00 +26°C° 0.8 mm 3 mps 671 mmHg 75%
19:00 +25°C° 0.8 mm 2 mps 671 mmHg 82%
20:00 +23°C° 0.8 mm 1 mps 671 mmHg 88%
21:00 +23°C° 0.1 mm 1 mps 672 mmHg 89%
22:00 +22°C° 0.1 mm 1 mps 672 mmHg 90%
23:00 +22°C° 0.1 mm 1 mps 672 mmHg 91%

30 January, Saturday

Time Temperature Precipitation Wind Pressure Humidity
00:00 +22°C° 0 mm 1 mps 672 mmHg 92%
01:00 +21°C° 0 mm 1 mps 671 mmHg 93%
02:00 +21°C° 0 mm 1 mps 671 mmHg 94%
03:00 +21°C° 0 mm 1 mps 671 mmHg 94%
04:00 +20°C° 0 mm 1 mps 671 mmHg 95%
05:00 +19°C° 0 mm 2 mps 671 mmHg 95%
06:00 +20°C° 0 mm 2 mps 671 mmHg 92%
07:00 +21°C° 0 mm 2 mps 672 mmHg 89%
08:00 +21°C° 0 mm 2 mps 672 mmHg 87%
09:00 +24°C° 0.1 mm 3 mps 673 mmHg 77%
10:00 +26°C° 0.1 mm 3 mps 673 mmHg 68%
11:00 +29°C° 0.1 mm 3 mps 673 mmHg 59%
12:00 +29°C° 0.3 mm 3 mps 673 mmHg 57%
13:00 +30°C° 0.3 mm 3 mps 672 mmHg 56%
14:00 +30°C° 0.3 mm 4 mps 671 mmHg 54%
15:00 +30°C° 0 mm 3 mps 671 mmHg 55%
16:00 +30°C° 0 mm 3 mps 670 mmHg 55%
17:00 +30°C° 0 mm 2 mps 670 mmHg 56%
18:00 +28°C° 0 mm 2 mps 670 mmHg 60%
19:00 +27°C° 0 mm 1 mps 670 mmHg 65%
20:00 +25°C° 0 mm 1 mps 670 mmHg 70%
21:00 +24°C° 0.2 mm 1 mps 670 mmHg 74%
22:00 +24°C° 0.2 mm 1 mps 670 mmHg 78%
23:00 +23°C° 0.2 mm 1 mps 670 mmHg 82%

31 January, Sunday

Time Temperature Precipitation Wind Pressure Humidity
00:00 +23°C° 0.2 mm 1 mps 670 mmHg 85%
01:00 +21°C° 0.2 mm 2 mps 670 mmHg 88%
02:00 +20°C° 0.2 mm 2 mps 670 mmHg 92%
03:00 +20°C° 0.1 mm 2 mps 669 mmHg 93%
04:00 +20°C° 0.1 mm 2 mps 669 mmHg 94%
05:00 +20°C° 0.1 mm 2 mps 669 mmHg 96%
06:00 +20°C° 0 mm 3 mps 670 mmHg 94%
07:00 +21°C° 0 mm 3 mps 671 mmHg 91%
08:00 +22°C° 0 mm 4 mps 671 mmHg 89%
09:00 +23°C° 0.4 mm 4 mps 671 mmHg 82%
10:00 +26°C° 0.4 mm 4 mps 671 mmHg 74%
11:00 +28°C° 0.4 mm 4 mps 672 mmHg 67%
12:00 +29°C° 0.9 mm 4 mps 671 mmHg 65%
13:00 +29°C° 0.9 mm 4 mps 671 mmHg 63%
14:00 +30°C° 0.9 mm 4 mps 670 mmHg 61%
15:00 +30°C° 0.5 mm 3 mps 670 mmHg 61%
16:00 +30°C° 0.5 mm 2 mps 669 mmHg 62%
17:00 +30°C° 0.5 mm 1 mps 669 mmHg 62%
18:00 +28°C° 0.1 mm 2 mps 669 mmHg 69%
19:00 +26°C° 0.1 mm 2 mps 669 mmHg 76%
20:00 +24°C° 0.1 mm 2 mps 669 mmHg 83%
21:00 +24°C° 0.1 mm 2 mps 669 mmHg 85%
22:00 +23°C° 0.1 mm 2 mps 670 mmHg 88%
23:00 +23°C° 0.1 mm 2 mps 670 mmHg 90%
Show more